星链-3303 (STARLINK-3303 )

导读

STARLINK-3303是美国太空探索技术公司SpaceX星链(Starlink)卫星互联网项目的一颗卫星,于北京时间2021年12月18日08:00发射升空,星链计划旨在构建全球卫星互联网星座,该卫星的发射推进了全球覆盖的低轨卫星互联网组网进程,为后续提供全球宽带网络服务进一步扩充了星座规模。

基本信息
目录编号:
50162
目录名称:
STARLINK-3303
国际标识:
2021-125G
轨道中心:
EARTH
卫星名称:
星链-3303
卫星全名:
星链-3303 (STARLINK-3303 )
卫星状态:
已陨落 最后检测时间 2024-02-18
发射日期:
2021-12-18 UTC
国别 :
美国 (US)
星等 :
--
轨道信息
数据来源 国际轨道数据
星历时间: 2024-02-18T21:02:23+0800
轨道信息已过期846天
半长轴: 6542.743km
偏心率: 0.0003146
轨道倾角: 53.150°
近地点辐角 94.855°
升交点赤经 45.174°
平近点角 359.160°
近地点: 162.549km
远地点: 166.667km
周期: 87.781分钟
每日圈数: 16.4045
详细信息
固有亮度:
5
最大亮度:
2.5
卫星平台:
Starlink v1.5
覆盖范围:
全球
运营商:
太空探索技术公司
运营商所在国:
美国
制造商(研发单位):
太空探索技术公司
制造商所在国:
美国
使用方式:
暂无
卫星简介
星链(Starlink)计划是由太空探索技术公司(SpaceX)提出的一个巨型低轨卫星互联网星座项目,计划在2019年至2024年间在太空搭建由约1.2万颗卫星组成的“星链”网络,其中1584颗将部署在地球上空550千米处的近地轨道,并从2020年开始工作。该卫星已陨落。